Time,TemperatureF,DewpointF,PressureIn,WindDirection,WindDirectionDegrees,WindSpeedMPH,WindSpeedGustMPH,Humidity,HourlyPrecipIn,Conditions,Clouds,dailyrainin,SoftwareType,DateUTC
2013-08-16 00:02:00,72.5,63.0,30.19,SW,219,3.0,13.0,72,0.00,,,0.00,meteohub,2013-08-16 07:02:00,
2013-08-16 00:07:00,72.7,62.8,30.19,SW,217,2.0,8.0,71,0.00,,,0.00,meteohub,2013-08-16 07:07:00,
2013-08-16 00:12:00,72.7,62.8,30.19,SW,226,4.0,8.0,71,0.00,,,0.00,meteohub,2013-08-16 07:12:00,
2013-08-16 00:17:00,72.7,63.1,30.19,SW,227,2.0,6.0,72,0.00,,,0.00,meteohub,2013-08-16 07:17:00,
2013-08-16 00:22:00,72.5,63.0,30.19,SW,219,3.0,8.0,72,0.00,,,0.00,meteohub,2013-08-16 07:22:00,
2013-08-16 00:27:00,72.3,62.8,30.19,SW,227,4.0,8.0,72,0.00,,,0.00,meteohub,2013-08-16 07:27:00,
2013-08-16 00:32:00,72.3,62.8,30.19,SSW,211,3.0,8.0,72,0.00,,,0.00,meteohub,2013-08-16 07:32:00,
2013-08-16 00:37:00,72.3,62.8,30.19,West,267,2.0,9.0,72,0.00,,,0.00,meteohub,2013-08-16 07:37:00,
2013-08-16 00:42:00,72.3,62.8,30.19,West,260,4.0,9.0,72,0.00,,,0.00,meteohub,2013-08-16 07:42:00,
2013-08-16 00:47:00,72.3,63.1,30.19,SW,221,1.0,9.0,73,0.00,,,0.00,meteohub,2013-08-16 07:47:00,
2013-08-16 00:52:00,72.1,63.0,30.19,SW,216,1.0,10.0,73,0.00,,,0.00,meteohub,2013-08-16 07:52:00,
2013-08-16 00:57:00,72.1,63.0,30.19,SW,217,7.0,10.0,73,0.00,,,0.00,meteohub,2013-08-16 07:57:00,
2013-08-16 01:02:00,72.1,63.0,30.19,WSW,242,3.0,10.0,73,0.00,,,0.00,meteohub,2013-08-16 08:02:00,
2013-08-16 01:07:00,72.0,62.8,30.19,SW,232,2.0,7.0,73,0.00,,,0.00,meteohub,2013-08-16 08:07:00,
2013-08-16 01:12:00,72.0,62.8,30.20,WSW,257,2.0,7.0,73,0.00,,,0.00,meteohub,2013-08-16 08:12:00,
2013-08-16 01:17:00,72.0,62.8,30.20,WNW,298,0.0,4.0,73,0.00,,,0.00,meteohub,2013-08-16 08:17:00,
2013-08-16 01:22:00,72.0,62.8,30.20,WNW,285,0.0,4.0,73,0.00,,,0.00,meteohub,2013-08-16 08:22:00,
2013-08-16 01:27:00,71.8,63.0,30.20,WSW,256,1.0,5.0,74,0.00,,,0.00,meteohub,2013-08-16 08:27:00,
2013-08-16 01:32:00,71.6,63.0,30.20,WSW,253,0.0,9.0,74,0.00,,,0.00,meteohub,2013-08-16 08:32:00,
2013-08-16 01:37:00,71.4,63.1,30.20,WSW,256,0.0,9.0,75,0.00,,,0.00,meteohub,2013-08-16 08:37:00,
2013-08-16 01:42:00,71.2,63.0,30.19,West,269,0.0,4.0,75,0.00,,,0.00,meteohub,2013-08-16 08:42:00,
2013-08-16 01:47:00,71.2,63.3,30.19,WNW,285,1.0,5.0,76,0.00,,,0.00,meteohub,2013-08-16 08:47:00,
2013-08-16 01:52:00,71.1,63.5,30.19,WSW,253,4.0,6.0,77,0.00,,,0.00,meteohub,2013-08-16 08:52:00,
2013-08-16 01:57:00,70.9,63.3,30.19,West,264,3.0,7.0,77,0.00,,,0.00,meteohub,2013-08-16 08:57:00,
2013-08-16 02:02:00,70.7,63.1,30.19,SW,232,1.0,8.0,77,0.00,,,0.00,meteohub,2013-08-16 09:02:00,
2013-08-16 02:07:00,70.5,63.3,30.19,SW,226,2.0,8.0,78,0.00,,,0.00,meteohub,2013-08-16 09:07:00,
2013-08-16 02:12:00,70.3,63.1,30.19,SW,215,0.0,8.0,78,0.00,,,0.00,meteohub,2013-08-16 09:12:00,
2013-08-16 02:17:00,70.3,63.1,30.19,SE,128,0.0,8.0,78,0.00,,,0.00,meteohub,2013-08-16 09:17:00,
2013-08-16 02:22:00,70.2,63.0,30.20,SE,146,0.0,7.0,78,0.00,,,0.00,meteohub,2013-08-16 09:22:00,
2013-08-16 02:27:00,70.2,63.0,30.20,ESE,119,0.0,4.0,78,0.00,,,0.00,meteohub,2013-08-16 09:27:00,
2013-08-16 02:32:00,70.0,63.1,30.20,East,90,0.0,2.0,79,0.00,,,0.00,meteohub,2013-08-16 09:32:00,
2013-08-16 02:37:00,69.8,63.3,30.20,NE,36,1.0,2.0,80,0.00,,,0.00,meteohub,2013-08-16 09:37:00,
2013-08-16 02:42:00,69.8,63.7,30.20,WSW,249,1.0,2.0,81,0.00,,,0.00,meteohub,2013-08-16 09:42:00,
2013-08-16 02:47:00,69.6,63.9,30.20,NW,315,4.0,4.0,82,0.00,,,0.00,meteohub,2013-08-16 09:47:00,
2013-08-16 02:52:00,69.4,63.7,30.20,WNW,292,1.0,6.0,82,0.00,,,0.00,meteohub,2013-08-16 09:52:00,
2013-08-16 02:57:00,69.3,63.9,30.20,WSW,256,2.0,6.0,83,0.00,,,0.00,meteohub,2013-08-16 09:57:00,
2013-08-16 03:02:00,69.1,63.7,30.20,WSW,246,3.0,7.0,83,0.00,,,0.00,meteohub,2013-08-16 10:02:00,
2013-08-16 03:07:00,69.1,63.7,30.20,West,259,1.0,8.0,83,0.00,,,0.00,meteohub,2013-08-16 10:07:00,
2013-08-16 03:12:00,68.9,63.9,30.20,SSW,213,2.0,8.0,84,0.00,,,0.00,meteohub,2013-08-16 10:12:00,
2013-08-16 03:17:00,68.9,63.9,30.20,SSW,202,2.0,8.0,84,0.00,,,0.00,meteohub,2013-08-16 10:17:00,
2013-08-16 03:22:00,68.7,63.7,30.20,SW,217,2.0,8.0,84,0.00,,,0.00,meteohub,2013-08-16 10:22:00,
2013-08-16 03:27:00,68.7,63.7,30.20,West,268,2.0,7.0,84,0.00,,,0.00,meteohub,2013-08-16 10:27:00,
2013-08-16 03:32:00,68.7,63.7,30.19,SW,226,0.0,5.0,84,0.00,,,0.00,meteohub,2013-08-16 10:32:00,
2013-08-16 03:37:00,68.7,63.3,30.19,SSW,203,3.0,4.0,83,0.00,,,0.00,meteohub,2013-08-16 10:37:00,
2013-08-16 03:42:00,68.7,63.7,30.21,SSW,194,0.0,4.0,84,0.00,,,0.00,meteohub,2013-08-16 10:42:00,
2013-08-16 03:47:00,68.7,63.7,30.20,SSW,194,0.0,4.0,84,0.00,,,0.00,meteohub,2013-08-16 10:47:00,
2013-08-16 03:52:00,68.5,63.5,30.20,West,268,1.0,4.0,84,0.00,,,0.00,meteohub,2013-08-16 10:52:00,
2013-08-16 03:57:00,68.4,63.3,30.20,SW,236,6.0,6.0,84,0.00,,,0.00,meteohub,2013-08-16 10:57:00,
2013-08-16 04:02:00,68.2,63.1,30.20,SW,226,2.0,7.0,84,0.00,,,0.00,meteohub,2013-08-16 11:02:00,
2013-08-16 04:07:00,67.8,62.8,30.20,West,263,7.0,9.0,84,0.00,,,0.00,meteohub,2013-08-16 11:07:00,
2013-08-16 04:12:00,67.8,62.8,30.20,SSW,205,5.0,11.0,84,0.00,,,0.00,meteohub,2013-08-16 11:12:00,
2013-08-16 04:17:00,67.6,62.6,30.19,WSW,256,1.0,11.0,84,0.00,,,0.00,meteohub,2013-08-16 11:17:00,
2013-08-16 04:22:00,67.6,62.6,30.20,SW,232,2.0,11.0,84,0.00,,,0.00,meteohub,2013-08-16 11:22:00,
2013-08-16 04:27:00,67.6,62.6,30.20,WSW,257,1.0,6.0,84,0.00,,,0.00,meteohub,2013-08-16 11:27:00,
2013-08-16 04:32:00,67.8,63.1,30.20,West,267,1.0,6.0,85,0.00,,,0.00,meteohub,2013-08-16 11:32:00,
2013-08-16 04:37:00,68.2,63.1,30.19,SW,230,0.0,4.0,84,0.00,,,0.00,meteohub,2013-08-16 11:37:00,
2013-08-16 04:42:00,68.5,63.5,30.20,WSW,252,1.0,8.0,84,0.00,,,0.00,meteohub,2013-08-16 11:42:00,
2013-08-16 04:47:00,68.5,63.5,30.19,SW,233,3.0,8.0,84,0.00,,,0.00,meteohub,2013-08-16 11:47:00,
2013-08-16 04:52:00,68.4,63.3,30.19,SW,233,0.0,8.0,84,0.00,,,0.00,meteohub,2013-08-16 11:52:00,
2013-08-16 04:57:00,68.2,63.1,30.19,WSW,248,1.0,5.0,84,0.00,,,0.00,meteohub,2013-08-16 11:57:00,
2013-08-16 05:02:00,68.0,63.0,30.19,West,269,3.0,7.0,84,0.00,,,0.00,meteohub,2013-08-16 12:02:00,
2013-08-16 05:07:00,67.8,63.1,30.19,WSW,252,3.0,11.0,85,0.00,,,0.00,meteohub,2013-08-16 12:07:00,
2013-08-16 05:12:00,67.6,63.0,30.19,SW,221,8.0,11.0,85,0.00,,,0.00,meteohub,2013-08-16 12:12:00,
2013-08-16 05:17:00,67.6,63.0,30.19,South,182,2.0,11.0,85,0.00,,,0.00,meteohub,2013-08-16 12:17:00,
2013-08-16 05:22:00,67.6,62.6,30.20,WSW,244,0.0,8.0,84,0.00,,,0.00,meteohub,2013-08-16 12:22:00,
2013-08-16 05:27:00,67.6,62.6,30.20,SW,236,0.0,8.0,84,0.00,,,0.00,meteohub,2013-08-16 12:27:00,
2013-08-16 05:32:00,67.8,62.8,30.20,WNW,300,4.0,8.0,84,0.00,,,0.00,meteohub,2013-08-16 12:32:00,
2013-08-16 05:37:00,67.6,63.0,30.20,SSE,156,3.0,5.0,85,0.00,,,0.00,meteohub,2013-08-16 12:37:00,
2013-08-16 05:42:00,67.3,62.6,30.20,SW,217,2.0,5.0,85,0.00,,,0.00,meteohub,2013-08-16 12:42:00,
2013-08-16 05:47:00,66.9,62.2,30.20,SW,236,8.0,13.0,85,0.00,,,0.00,meteohub,2013-08-16 12:47:00,
2013-08-16 05:52:00,66.7,61.7,30.21,WSW,245,5.0,13.0,84,0.00,,,0.00,meteohub,2013-08-16 12:52:00,
2013-08-16 05:57:00,66.7,61.7,30.20,WSW,257,6.0,13.0,84,0.00,,,0.00,meteohub,2013-08-16 12:57:00,
2013-08-16 06:02:00,66.6,61.9,30.20,West,276,2.0,12.0,85,0.00,,,0.00,meteohub,2013-08-16 13:02:00,
2013-08-16 06:07:00,66.6,61.9,30.20,WSW,237,2.0,9.0,85,0.00,,,0.00,meteohub,2013-08-16 13:07:00,
2013-08-16 06:12:00,66.6,61.9,30.21,SE,144,1.0,9.0,85,0.00,,,0.00,meteohub,2013-08-16 13:12:00,
2013-08-16 06:17:00,66.6,61.9,30.21,SSE,151,0.0,6.0,85,0.00,,,0.00,meteohub,2013-08-16 13:17:00,
2013-08-16 06:23:00,66.6,61.9,30.21,NW,309,2.0,6.0,85,0.00,,,0.00,meteohub,2013-08-16 13:23:00,
2013-08-16 06:28:00,66.4,61.7,30.20,WNW,300,7.0,7.0,85,0.01,,,0.01,meteohub,2013-08-16 13:28:00,
2013-08-16 06:33:00,66.4,61.7,30.21,WSW,247,5.0,7.0,85,0.01,,,0.01,meteohub,2013-08-16 13:33:00,
2013-08-16 06:38:00,66.2,61.5,30.21,WSW,256,1.0,13.0,85,0.01,,,0.01,meteohub,2013-08-16 13:38:00,
2013-08-16 06:43:00,66.2,61.5,30.22,WSW,248,0.0,13.0,85,0.01,,,0.01,meteohub,2013-08-16 13:43:00,
2013-08-16 06:48:00,66.2,61.2,30.21,WNW,295,3.0,7.0,84,0.02,,,0.02,meteohub,2013-08-16 13:48:00,
2013-08-16 06:53:00,66.2,61.2,30.21,West,265,3.0,7.0,84,0.02,,,0.02,meteohub,2013-08-16 13:53:00,
2013-08-16 06:58:00,66.4,61.3,30.21,West,279,3.0,7.0,84,0.03,,,0.03,meteohub,2013-08-16 13:58:00,
2013-08-16 07:03:00,66.2,61.5,30.22,NW,312,1.0,7.0,85,0.03,,,0.03,meteohub,2013-08-16 14:03:00,
2013-08-16 07:08:00,66.0,61.3,30.21,WSW,252,3.0,7.0,85,0.04,,,0.04,meteohub,2013-08-16 14:08:00,
2013-08-16 07:13:00,65.8,61.2,30.21,West,279,6.0,9.0,85,0.05,,,0.05,meteohub,2013-08-16 14:13:00,
2013-08-16 07:19:00,65.8,61.2,30.21,WSW,240,2.0,9.0,85,0.05,,,0.05,meteohub,2013-08-16 14:19:00,
2013-08-16 07:24:00,65.8,61.2,30.21,WSW,240,2.0,7.0,85,0.04,,,0.05,meteohub,2013-08-16 14:24:00,
2013-08-16 07:29:00,66.0,61.0,30.22,SW,225,3.0,7.0,84,0.04,,,0.05,meteohub,2013-08-16 14:29:00,
2013-08-16 07:34:00,65.8,60.8,30.22,West,280,2.0,5.0,84,0.05,,,0.06,meteohub,2013-08-16 14:34:00,
2013-08-16 07:39:00,65.8,60.8,30.22,West,271,1.0,7.0,84,0.05,,,0.06,meteohub,2013-08-16 14:39:00,
2013-08-16 07:44:00,65.8,60.8,30.22,WSW,237,1.0,7.0,84,0.05,,,0.07,meteohub,2013-08-16 14:44:00,
2013-08-16 07:49:00,66.0,61.3,30.22,West,275,1.0,7.0,85,0.05,,,0.07,meteohub,2013-08-16 14:49:00,
2013-08-16 07:54:00,66.0,61.0,30.23,South,184,1.0,5.0,84,0.04,,,0.07,meteohub,2013-08-16 14:54:00,
2013-08-16 07:59:00,66.2,60.6,30.22,SSE,168,0.0,5.0,82,0.05,,,0.08,meteohub,2013-08-16 14:59:00,
2013-08-16 08:05:00,66.4,60.8,30.22,SSE,167,0.0,4.0,82,0.06,,,0.09,meteohub,2013-08-16 15:05:00,
2013-08-16 08:10:00,66.4,61.0,30.22,West,276,0.0,3.0,83,0.06,,,0.10,meteohub,2013-08-16 15:10:00,
2013-08-16 08:15:00,66.4,61.7,30.23,SW,217,3.0,3.0,85,0.06,,,0.11,meteohub,2013-08-16 15:15:00,
2013-08-16 08:20:00,66.4,61.7,30.23,WSW,240,1.0,5.0,85,0.06,,,0.11,meteohub,2013-08-16 15:20:00,
2013-08-16 08:25:00,66.2,61.5,30.23,WSW,242,2.0,8.0,85,0.06,,,0.11,meteohub,2013-08-16 15:25:00,
2013-08-16 08:30:00,66.2,61.5,30.24,NW,309,1.0,9.0,85,0.05,,,0.11,meteohub,2013-08-16 15:30:00,
2013-08-16 08:35:00,66.2,61.5,30.23,WNW,286,3.0,9.0,85,0.04,,,0.11,meteohub,2013-08-16 15:35:00,
2013-08-16 08:40:00,66.2,61.5,30.23,WSW,250,0.0,9.0,85,0.04,,,0.11,meteohub,2013-08-16 15:40:00,
2013-08-16 08:45:00,66.4,61.7,30.24,West,272,2.0,8.0,85,0.04,,,0.11,meteohub,2013-08-16 15:45:00,
2013-08-16 08:50:00,66.4,61.7,30.24,SW,216,6.0,6.0,85,0.03,,,0.11,meteohub,2013-08-16 15:50:00,
2013-08-16 08:55:00,66.4,61.3,30.23,SW,225,3.0,7.0,84,0.02,,,0.11,meteohub,2013-08-16 15:55:00,
2013-08-16 09:01:00,66.4,61.7,30.23,WSW,245,2.0,9.0,85,0.01,,,0.11,meteohub,2013-08-16 16:01:00,
2013-08-16 09:06:00,66.6,61.5,30.24,WSW,250,2.0,9.0,84,0.00,,,0.11,meteohub,2013-08-16 16:06:00,
2013-08-16 09:11:00,66.6,61.5,30.24,WSW,238,4.0,7.0,84,0.00,,,0.11,meteohub,2013-08-16 16:11:00,
2013-08-16 09:16:00,66.6,61.9,30.23,SW,236,1.0,8.0,85,0.00,,,0.11,meteohub,2013-08-16 16:16:00,
2013-08-16 09:21:00,66.6,61.9,30.23,WSW,242,2.0,8.0,85,0.00,,,0.11,meteohub,2013-08-16 16:21:00,
2013-08-16 09:26:00,66.6,61.5,30.23,WNW,292,3.0,8.0,84,0.00,,,0.11,meteohub,2013-08-16 16:26:00,
2013-08-16 09:31:00,66.7,62.1,30.23,SW,230,2.0,6.0,85,0.00,,,0.11,meteohub,2013-08-16 16:31:00,
2013-08-16 09:36:00,66.9,62.2,30.23,WSW,249,2.0,6.0,85,0.00,,,0.11,meteohub,2013-08-16 16:36:00,
2013-08-16 09:41:00,66.9,62.2,30.24,WNW,300,2.0,6.0,85,0.00,,,0.11,meteohub,2013-08-16 16:41:00,
2013-08-16 09:46:00,66.9,62.2,30.23,WSW,240,3.0,7.0,85,0.00,,,0.11,meteohub,2013-08-16 16:46:00,
2013-08-16 09:52:00,66.9,62.2,30.23,WSW,253,3.0,7.0,85,0.00,,,0.11,meteohub,2013-08-16 16:52:00,
2013-08-16 09:57:00,67.1,62.4,30.24,SW,236,2.0,7.0,85,0.00,,,0.11,meteohub,2013-08-16 16:57:00,
2013-08-16 10:02:00,67.3,62.6,30.24,SW,230,3.0,7.0,85,0.00,,,0.11,meteohub,2013-08-16 17:02:00,
2013-08-16 10:07:00,67.5,62.8,30.25,SW,225,2.0,7.0,85,0.00,,,0.11,meteohub,2013-08-16 17:07:00,
2013-08-16 10:12:00,67.5,62.8,30.24,NW,306,2.0,7.0,85,0.00,,,0.11,meteohub,2013-08-16 17:12:00,
2013-08-16 10:17:00,67.6,63.0,30.24,WSW,244,1.0,6.0,85,0.00,,,0.11,meteohub,2013-08-16 17:17:00,
2013-08-16 10:22:00,67.6,63.0,30.24,WSW,253,1.0,6.0,85,0.00,,,0.11,meteohub,2013-08-16 17:22:00,
2013-08-16 10:27:00,67.5,62.8,30.24,West,272,2.0,6.0,85,0.00,,,0.11,meteohub,2013-08-16 17:27:00,
2013-08-16 10:33:00,67.3,62.6,30.24,West,270,1.0,4.0,85,0.00,,,0.11,meteohub,2013-08-16 17:33:00,
2013-08-16 10:38:00,67.1,62.4,30.24,WSW,257,3.0,5.0,85,0.00,,,0.11,meteohub,2013-08-16 17:38:00,
2013-08-16 10:43:00,67.3,62.6,30.24,WSW,238,0.0,5.0,85,0.01,,,0.12,meteohub,2013-08-16 17:43:00,
2013-08-16 10:48:00,67.5,62.8,30.24,WSW,253,1.0,5.0,85,0.01,,,0.12,meteohub,2013-08-16 17:48:00,
2013-08-16 10:53:00,67.6,63.0,30.24,West,261,1.0,3.0,85,0.01,,,0.12,meteohub,2013-08-16 17:53:00,
2013-08-16 10:58:00,67.8,63.1,30.24,WNW,288,3.0,3.0,85,0.01,,,0.12,meteohub,2013-08-16 17:58:00,
2013-08-16 11:03:00,68.2,63.5,30.25,WSW,237,1.0,4.0,85,0.01,,,0.12,meteohub,2013-08-16 18:03:00,
2013-08-16 11:08:00,68.4,63.3,30.25,WNW,288,0.0,4.0,84,0.01,,,0.12,meteohub,2013-08-16 18:08:00,
2013-08-16 11:14:00,68.7,63.7,30.24,NW,309,2.0,4.0,84,0.01,,,0.12,meteohub,2013-08-16 18:14:00,
2013-08-16 11:19:00,68.7,63.3,30.24,WNW,301,2.0,4.0,83,0.01,,,0.12,meteohub,2013-08-16 18:19:00,
2013-08-16 11:24:00,68.9,63.5,30.24,WNW,285,4.0,4.0,83,0.01,,,0.12,meteohub,2013-08-16 18:24:00,
2013-08-16 11:29:00,68.9,63.5,30.24,West,280,2.0,7.0,83,0.01,,,0.12,meteohub,2013-08-16 18:29:00,
2013-08-16 11:34:00,69.1,63.7,30.24,WNW,302,2.0,7.0,83,0.01,,,0.12,meteohub,2013-08-16 18:34:00,
2013-08-16 11:39:00,69.4,64.0,30.24,WSW,245,3.0,7.0,83,0.00,,,0.12,meteohub,2013-08-16 18:39:00,
2013-08-16 11:44:00,69.6,63.5,30.24,WSW,245,3.0,5.0,81,0.00,,,0.12,meteohub,2013-08-16 18:44:00,
2013-08-16 11:49:00,69.8,64.0,30.24,West,279,2.0,6.0,82,0.00,,,0.12,meteohub,2013-08-16 18:49:00,
2013-08-16 11:54:00,69.6,63.5,30.24,West,260,3.0,6.0,81,0.00,,,0.12,meteohub,2013-08-16 18:54:00,
2013-08-16 11:59:00,69.6,63.9,30.24,WSW,253,2.0,6.0,82,0.00,,,0.12,meteohub,2013-08-16 18:59:00,
2013-08-16 12:05:00,69.6,63.9,30.24,SW,214,2.0,6.0,82,0.00,,,0.12,meteohub,2013-08-16 19:05:00,
2013-08-16 12:10:00,70.2,63.7,30.24,SW,236,3.0,5.0,80,0.00,,,0.12,meteohub,2013-08-16 19:10:00,
2013-08-16 12:15:00,70.5,64.4,30.24,WNW,287,5.0,5.0,81,0.00,,,0.12,meteohub,2013-08-16 19:15:00,
2013-08-16 12:20:00,71.4,64.6,30.23,WNW,290,0.0,4.0,79,0.00,,,0.12,meteohub,2013-08-16 19:20:00,
2013-08-16 12:25:00,72.1,65.3,30.23,NW,307,4.0,5.0,79,0.00,,,0.12,meteohub,2013-08-16 19:25:00,
2013-08-16 12:30:00,72.3,64.8,30.23,NW,321,1.0,5.0,77,0.00,,,0.12,meteohub,2013-08-16 19:30:00,
2013-08-16 12:35:00,72.5,64.9,30.23,NW,309,2.0,4.0,77,0.00,,,0.12,meteohub,2013-08-16 19:35:00,
2013-08-16 12:40:00,72.5,64.0,30.23,WNW,298,4.0,7.0,75,0.00,,,0.12,meteohub,2013-08-16 19:40:00,
2013-08-16 12:45:00,72.7,64.2,30.23,NW,304,5.0,7.0,75,0.00,,,0.12,meteohub,2013-08-16 19:45:00,
2013-08-16 12:50:00,73.2,64.8,30.22,WNW,283,2.0,7.0,75,0.00,,,0.12,meteohub,2013-08-16 19:50:00,
2013-08-16 12:55:00,73.6,64.8,30.22,NW,306,3.0,6.0,74,0.00,,,0.12,meteohub,2013-08-16 19:55:00,
2013-08-16 13:00:00,73.8,65.3,30.22,NW,313,3.0,5.0,75,0.00,,,0.12,meteohub,2013-08-16 20:00:00,
2013-08-16 13:05:00,73.9,65.1,30.22,NNE,30,0.0,5.0,74,0.00,,,0.12,meteohub,2013-08-16 20:05:00,
2013-08-16 13:11:00,75.4,65.7,30.22,SE,141,1.0,4.0,72,0.00,,,0.12,meteohub,2013-08-16 20:11:00,
2013-08-16 13:16:00,76.1,66.0,30.22,ENE,66,2.0,4.0,71,0.00,,,0.12,meteohub,2013-08-16 20:16:00,
2013-08-16 13:21:00,76.1,65.7,30.22,NE,55,0.0,4.0,70,0.00,,,0.12,meteohub,2013-08-16 20:21:00,
2013-08-16 13:26:00,76.3,65.3,30.22,NW,311,2.0,4.0,69,0.00,,,0.12,meteohub,2013-08-16 20:26:00,
2013-08-16 13:31:00,75.7,65.3,30.22,NNW,336,1.0,3.0,70,0.00,,,0.12,meteohub,2013-08-16 20:31:00,
2013-08-16 13:36:00,75.6,66.4,30.22,NNW,339,3.0,3.0,73,0.00,,,0.12,meteohub,2013-08-16 20:36:00,
2013-08-16 13:41:00,75.4,66.2,30.21,SW,234,2.0,3.0,73,0.00,,,0.12,meteohub,2013-08-16 20:41:00,
2013-08-16 13:46:00,75.2,66.4,30.21,NNW,331,5.0,6.0,74,0.00,,,0.12,meteohub,2013-08-16 20:46:00,
2013-08-16 13:51:00,74.8,66.0,30.21,NNE,24,1.0,6.0,74,0.00,,,0.12,meteohub,2013-08-16 20:51:00,
2013-08-16 13:56:00,74.8,65.7,30.21,West,279,2.0,5.0,73,0.00,,,0.12,meteohub,2013-08-16 20:56:00,
2013-08-16 14:01:00,75.2,66.0,30.20,WNW,290,3.0,6.0,73,0.00,,,0.12,meteohub,2013-08-16 21:01:00,
2013-08-16 14:07:00,76.1,66.0,30.20,SW,214,3.0,8.0,71,0.00,,,0.12,meteohub,2013-08-16 21:07:00,
2013-08-16 14:12:00,76.8,65.8,30.20,WSW,242,6.0,9.0,69,0.00,,,0.12,meteohub,2013-08-16 21:12:00,
2013-08-16 14:17:00,77.2,66.2,30.20,WNW,283,3.0,10.0,69,0.00,,,0.12,meteohub,2013-08-16 21:17:00,
2013-08-16 14:22:00,77.4,66.4,30.19,WSW,245,3.0,10.0,69,0.00,,,0.12,meteohub,2013-08-16 21:22:00,
2013-08-16 14:27:00,77.5,66.2,30.19,NNW,340,6.0,8.0,68,0.00,,,0.12,meteohub,2013-08-16 21:27:00,
2013-08-16 14:32:00,77.9,66.9,30.19,NW,326,6.0,8.0,69,0.00,,,0.12,meteohub,2013-08-16 21:32:00,
2013-08-16 14:37:00,77.7,66.7,30.19,NNW,331,2.0,7.0,69,0.00,,,0.12,meteohub,2013-08-16 21:37:00,
2013-08-16 14:42:00,78.3,66.7,30.19,NNW,329,4.0,7.0,68,0.00,,,0.12,meteohub,2013-08-16 21:42:00,
2013-08-16 14:47:00,79.2,65.8,30.19,SW,226,3.0,8.0,64,0.00,,,0.12,meteohub,2013-08-16 21:47:00,
2013-08-16 14:52:00,79.7,65.5,30.19,SW,236,3.0,8.0,62,0.00,,,0.12,meteohub,2013-08-16 21:52:00,
2013-08-16 14:57:00,80.1,65.5,30.19,WSW,249,2.0,9.0,61,0.00,,,0.12,meteohub,2013-08-16 21:57:00,
2013-08-16 15:02:00,80.2,65.5,30.19,WSW,257,6.0,13.0,61,0.00,,,0.12,meteohub,2013-08-16 22:02:00,
2013-08-16 15:07:00,80.4,65.3,30.19,WSW,237,3.0,13.0,60,0.00,,,0.12,meteohub,2013-08-16 22:07:00,
2013-08-16 15:12:00,80.8,65.7,30.18,WNW,295,3.0,11.0,60,0.00,,,0.12,meteohub,2013-08-16 22:12:00,
2013-08-16 15:17:00,80.8,65.1,30.18,WNW,292,3.0,12.0,59,0.00,,,0.12,meteohub,2013-08-16 22:17:00,
2013-08-16 15:22:00,81.0,65.3,30.18,WSW,240,4.0,13.0,59,0.00,,,0.12,meteohub,2013-08-16 22:22:00,
2013-08-16 15:28:00,81.1,64.4,30.17,WNW,292,2.0,13.0,57,0.00,,,0.12,meteohub,2013-08-16 22:28:00,
2013-08-16 15:33:00,81.3,64.6,30.18,WNW,294,6.0,13.0,57,0.00,,,0.12,meteohub,2013-08-16 22:33:00,
2013-08-16 15:38:00,81.3,64.6,30.18,WSW,253,13.0,13.0,57,0.00,,,0.12,meteohub,2013-08-16 22:38:00,
2013-08-16 15:43:00,81.7,64.9,30.18,WNW,283,12.0,13.0,57,0.00,,,0.12,meteohub,2013-08-16 22:43:00,
2013-08-16 15:48:00,81.9,64.6,30.18,West,275,1.0,15.0,56,0.00,,,0.12,meteohub,2013-08-16 22:48:00,
2013-08-16 15:53:00,82.0,64.8,30.18,NW,304,4.0,16.0,56,0.00,,,0.12,meteohub,2013-08-16 22:53:00,
2013-08-16 15:58:00,82.4,64.6,30.18,West,274,3.0,16.0,55,0.00,,,0.12,meteohub,2013-08-16 22:58:00,
2013-08-16 16:04:00,82.4,64.0,30.18,West,269,6.0,16.0,54,0.00,,,0.12,meteohub,2013-08-16 23:04:00,
2013-08-16 16:09:00,82.6,64.2,30.17,SW,225,6.0,13.0,54,0.00,,,0.12,meteohub,2013-08-16 23:09:00,
2013-08-16 16:14:00,82.8,64.4,30.17,West,260,7.0,15.0,54,0.00,,,0.12,meteohub,2013-08-16 23:14:00,
2013-08-16 16:19:00,82.4,64.0,30.18,WNW,292,4.0,15.0,54,0.00,,,0.12,meteohub,2013-08-16 23:19:00,
2013-08-16 16:24:00,82.4,64.6,30.18,WNW,295,9.0,16.0,55,0.00,,,0.12,meteohub,2013-08-16 23:24:00,
2013-08-16 16:29:00,82.2,63.9,30.18,SW,233,5.0,16.0,54,0.00,,,0.12,meteohub,2013-08-16 23:29:00,
2013-08-16 16:35:00,82.0,63.7,30.18,SW,233,7.0,16.0,54,0.00,,,0.12,meteohub,2013-08-16 23:35:00,
2013-08-16 16:40:00,82.2,63.9,30.18,West,279,3.0,15.0,54,0.00,,,0.12,meteohub,2013-08-16 23:40:00,
2013-08-16 16:45:00,82.0,63.7,30.17,SW,227,7.0,15.0,54,0.00,,,0.12,meteohub,2013-08-16 23:45:00,
2013-08-16 16:50:00,81.9,64.0,30.17,WNW,292,8.0,15.0,55,0.00,,,0.12,meteohub,2013-08-16 23:50:00,
2013-08-16 16:55:00,82.0,64.2,30.17,WNW,295,4.0,16.0,55,0.00,,,0.12,meteohub,2013-08-16 23:55:00,
2013-08-16 17:01:00,82.6,64.2,30.17,WSW,256,6.0,16.0,54,0.00,,,0.12,meteohub,2013-08-17 00:01:00,
2013-08-16 17:06:00,82.9,64.0,30.17,WSW,244,10.0,19.0,53,0.00,,,0.12,meteohub,2013-08-17 00:06:00,
2013-08-16 17:11:00,82.9,64.0,30.18,West,274,6.0,19.0,53,0.00,,,0.12,meteohub,2013-08-17 00:11:00,
2013-08-16 17:16:00,83.1,64.2,30.18,NW,311,5.0,19.0,53,0.00,,,0.12,meteohub,2013-08-17 00:16:00,
2013-08-16 17:21:00,82.9,64.0,30.19,WSW,242,6.0,14.0,53,0.00,,,0.12,meteohub,2013-08-17 00:21:00,
2013-08-16 17:26:00,82.8,63.3,30.19,WSW,240,3.0,14.0,52,0.00,,,0.12,meteohub,2013-08-17 00:26:00,
2013-08-16 17:31:00,82.9,63.5,30.19,NW,306,3.0,14.0,52,0.00,,,0.12,meteohub,2013-08-17 00:31:00,
2013-08-16 17:37:00,82.9,63.0,30.19,West,268,5.0,11.0,51,0.00,,,0.12,meteohub,2013-08-17 00:37:00,
2013-08-16 17:42:00,82.9,63.0,30.19,West,271,7.0,13.0,51,0.00,,,0.12,meteohub,2013-08-17 00:42:00,
2013-08-16 17:47:00,82.8,63.3,30.19,WNW,300,13.0,14.0,52,0.00,,,0.12,meteohub,2013-08-17 00:47:00,
2013-08-16 17:52:00,82.8,63.3,30.19,SW,225,9.0,15.0,52,0.00,,,0.12,meteohub,2013-08-17 00:52:00,
2013-08-16 17:57:00,82.9,62.4,30.19,WSW,256,5.0,15.0,50,0.00,,,0.12,meteohub,2013-08-17 00:57:00,
2013-08-16 18:02:00,82.9,62.4,30.19,West,275,4.0,15.0,50,0.00,,,0.12,meteohub,2013-08-17 01:02:00,
2013-08-16 18:07:00,82.9,62.4,30.19,SW,219,5.0,12.0,50,0.00,,,0.12,meteohub,2013-08-17 01:07:00,
2013-08-16 18:12:00,82.8,62.8,30.19,SW,219,5.0,12.0,51,0.00,,,0.12,meteohub,2013-08-17 01:12:00,
2013-08-16 18:17:00,82.8,62.2,30.19,SW,222,8.0,13.0,50,0.00,,,0.12,meteohub,2013-08-17 01:17:00,
2013-08-16 18:22:00,82.8,62.8,30.19,WNW,297,5.0,13.0,51,0.00,,,0.12,meteohub,2013-08-17 01:22:00,
2013-08-16 18:27:00,82.8,62.8,30.18,WSW,248,5.0,15.0,51,0.00,,,0.12,meteohub,2013-08-17 01:27:00,
2013-08-16 18:32:00,82.8,62.8,30.18,West,264,3.0,15.0,51,0.00,,,0.12,meteohub,2013-08-17 01:32:00,
2013-08-16 18:37:00,82.6,62.6,30.18,South,186,4.0,15.0,51,0.00,,,0.12,meteohub,2013-08-17 01:37:00,
2013-08-16 18:42:00,82.4,62.4,30.18,West,271,5.0,12.0,51,0.00,,,0.12,meteohub,2013-08-17 01:42:00,
2013-08-16 18:47:00,82.0,62.1,30.18,West,272,4.0,13.0,51,0.00,,,0.12,meteohub,2013-08-17 01:47:00,
2013-08-16 18:52:00,82.0,62.1,30.18,WNW,288,5.0,16.0,51,0.00,,,0.12,meteohub,2013-08-17 01:52:00,
2013-08-16 18:57:00,82.0,62.6,30.18,WSW,250,3.0,16.0,52,0.00,,,0.12,meteohub,2013-08-17 01:57:00,
2013-08-16 19:02:00,82.0,62.6,30.18,SSW,197,4.0,16.0,52,0.00,,,0.12,meteohub,2013-08-17 02:02:00,
2013-08-16 19:07:00,81.9,62.4,30.18,WSW,257,4.0,16.0,52,0.00,,,0.12,meteohub,2013-08-17 02:07:00,
2013-08-16 19:12:00,81.5,62.8,30.18,SSW,202,8.0,16.0,53,0.00,,,0.12,meteohub,2013-08-17 02:12:00,
2013-08-16 19:17:00,81.3,62.1,30.19,WSW,245,2.0,10.0,52,0.00,,,0.12,meteohub,2013-08-17 02:17:00,
2013-08-16 19:22:00,81.0,62.2,30.19,SW,234,4.0,9.0,53,0.00,,,0.12,meteohub,2013-08-17 02:22:00,
2013-08-16 19:27:00,80.8,62.6,30.19,WSW,253,6.0,9.0,54,0.00,,,0.12,meteohub,2013-08-17 02:27:00,
2013-08-16 19:32:00,80.4,62.2,30.19,WSW,248,8.0,10.0,54,0.00,,,0.12,meteohub,2013-08-17 02:32:00,
2013-08-16 19:37:00,80.2,62.1,30.19,SSW,211,3.0,10.0,54,0.00,,,0.12,meteohub,2013-08-17 02:37:00,
2013-08-16 19:42:00,80.1,61.9,30.19,SW,217,4.0,15.0,54,0.00,,,0.12,meteohub,2013-08-17 02:42:00,
2013-08-16 19:47:00,79.7,61.5,30.20,West,272,3.0,15.0,54,0.00,,,0.12,meteohub,2013-08-17 02:47:00,
2013-08-16 19:52:00,79.5,61.3,30.20,WNW,295,2.0,12.0,54,0.00,,,0.12,meteohub,2013-08-17 02:52:00,
2013-08-16 19:58:00,79.3,61.7,30.20,SSW,211,5.0,12.0,55,0.00,,,0.12,meteohub,2013-08-17 02:58:00,
2013-08-16 20:03:00,79.2,61.5,30.20,SW,236,1.0,12.0,55,0.00,,,0.12,meteohub,2013-08-17 03:03:00,
2013-08-16 20:08:00,79.0,61.9,30.20,WSW,237,4.0,14.0,56,0.00,,,0.12,meteohub,2013-08-17 03:08:00,
2013-08-16 20:13:00,78.8,61.7,30.20,SW,226,2.0,14.0,56,0.00,,,0.12,meteohub,2013-08-17 03:13:00,
2013-08-16 20:19:00,78.6,62.1,30.21,South,172,3.0,9.0,57,0.00,,,0.12,meteohub,2013-08-17 03:19:00,
2013-08-16 20:24:00,78.4,61.9,30.21,SSW,202,1.0,7.0,57,0.00,,,0.12,meteohub,2013-08-17 03:24:00,
2013-08-16 20:29:00,78.3,61.7,30.21,SSE,163,2.0,7.0,57,0.00,,,0.12,meteohub,2013-08-17 03:29:00,
2013-08-16 20:34:00,78.1,62.1,30.21,WSW,248,0.0,6.0,58,0.00,,,0.12,meteohub,2013-08-17 03:34:00,
2013-08-16 20:39:00,77.7,61.7,30.22,WSW,245,4.0,6.0,58,0.00,,,0.12,meteohub,2013-08-17 03:39:00,
2013-08-16 20:44:00,77.5,62.1,30.22,SW,219,2.0,5.0,59,0.00,,,0.12,meteohub,2013-08-17 03:44:00,
2013-08-16 20:50:00,77.4,61.9,30.22,WSW,240,1.0,5.0,59,0.00,,,0.12,meteohub,2013-08-17 03:50:00,
2013-08-16 20:55:00,77.2,62.2,30.22,SSW,195,1.0,5.0,60,0.00,,,0.12,meteohub,2013-08-17 03:55:00,
2013-08-16 21:00:00,77.0,62.1,30.22,SE,144,1.0,4.0,60,0.00,,,0.12,meteohub,2013-08-17 04:00:00,
2013-08-16 21:01:00,77.0,62.1,30.22,SSE,161,1.0,4.0,60,0.00,,,0.12,meteohub,2013-08-17 04:01:00,
2013-08-16 21:02:00,76.8,61.9,30.22,SSE,161,0.0,4.0,60,0.00,,,0.12,meteohub,2013-08-17 04:02:00,
2013-08-16 21:04:00,76.8,61.9,30.22,SSW,206,1.0,4.0,60,0.00,,,0.12,meteohub,2013-08-17 04:04:00,
2013-08-16 21:05:00,76.8,62.4,30.22,SSW,195,4.0,4.0,61,0.00,,,0.12,meteohub,2013-08-17 04:05:00,
2013-08-16 21:10:00,76.6,62.2,30.22,SW,217,3.0,6.0,61,0.00,,,0.12,meteohub,2013-08-17 04:10:00,
2013-08-16 21:16:00,76.6,62.2,30.22,SW,222,3.0,6.0,61,0.00,,,0.12,meteohub,2013-08-17 04:16:00,
2013-08-16 21:21:00,76.5,62.4,30.22,SSW,192,1.0,8.0,62,0.00,,,0.12,meteohub,2013-08-17 04:21:00,
2013-08-16 21:26:00,76.3,62.2,30.23,South,184,0.0,8.0,62,0.00,,,0.12,meteohub,2013-08-17 04:26:00,
2013-08-16 21:31:00,76.1,62.1,30.23,SW,223,2.0,8.0,62,0.00,,,0.12,meteohub,2013-08-17 04:31:00,
2013-08-16 21:36:00,75.9,62.4,30.23,WSW,242,2.0,7.0,63,0.00,,,0.12,meteohub,2013-08-17 04:36:00,
2013-08-16 21:42:00,75.9,62.8,30.23,SSW,199,3.0,7.0,64,0.00,,,0.12,meteohub,2013-08-17 04:42:00,
2013-08-16 21:47:00,75.7,62.8,30.23,SW,216,3.0,7.0,64,0.00,,,0.12,meteohub,2013-08-17 04:47:00,
2013-08-16 21:52:00,75.7,62.8,30.23,SW,217,3.0,6.0,64,0.00,,,0.12,meteohub,2013-08-17 04:52:00,
2013-08-16 21:57:00,75.7,62.8,30.23,SSW,213,3.0,6.0,64,0.00,,,0.12,meteohub,2013-08-17 04:57:00,
2013-08-16 22:02:00,75.7,62.8,30.23,WSW,242,2.0,6.0,64,0.00,,,0.12,meteohub,2013-08-17 05:02:00,
2013-08-16 22:07:00,75.7,62.8,30.23,West,267,3.0,6.0,64,0.00,,,0.12,meteohub,2013-08-17 05:07:00,
2013-08-16 22:12:00,75.7,62.8,30.23,WSW,250,3.0,8.0,64,0.00,,,0.12,meteohub,2013-08-17 05:12:00,
2013-08-16 22:17:00,75.7,62.8,30.23,WSW,248,2.0,8.0,64,0.00,,,0.12,meteohub,2013-08-17 05:17:00,
2013-08-16 22:22:00,75.6,62.6,30.23,SW,217,4.0,8.0,64,0.00,,,0.12,meteohub,2013-08-17 05:22:00,
2013-08-16 22:27:00,75.4,62.4,30.23,SW,226,1.0,5.0,64,0.00,,,0.12,meteohub,2013-08-17 05:27:00,
2013-08-16 22:32:00,75.2,62.6,30.23,West,280,0.0,5.0,65,0.00,,,0.12,meteohub,2013-08-17 05:32:00,
2013-08-16 22:37:00,75.0,62.4,30.23,WSW,250,1.0,6.0,65,0.00,,,0.12,meteohub,2013-08-17 05:37:00,
2013-08-16 22:42:00,74.8,62.2,30.23,WNW,283,2.0,6.0,65,0.00,,,0.12,meteohub,2013-08-17 05:42:00,
2013-08-16 22:47:00,74.5,62.4,30.23,West,263,1.0,3.0,66,0.00,,,0.12,meteohub,2013-08-17 05:47:00,
2013-08-16 22:52:00,73.9,62.2,30.23,SW,225,1.0,3.0,67,0.00,,,0.12,meteohub,2013-08-17 05:52:00,
2013-08-16 22:57:00,73.6,62.4,30.23,SW,225,0.0,3.0,68,0.00,,,0.12,meteohub,2013-08-17 05:57:00,
2013-08-16 23:02:00,73.2,62.4,30.23,WSW,244,2.0,2.0,69,0.00,,,0.12,meteohub,2013-08-17 06:02:00,
2013-08-16 23:07:00,73.0,62.6,30.23,West,276,1.0,3.0,70,0.00,,,0.12,meteohub,2013-08-17 06:07:00,
2013-08-16 23:12:00,72.9,63.0,30.23,WSW,253,1.0,3.0,71,0.00,,,0.12,meteohub,2013-08-17 06:12:00,
2013-08-16 23:17:00,72.7,62.8,30.23,West,263,0.0,3.0,71,0.00,,,0.12,meteohub,2013-08-17 06:17:00,
2013-08-16 23:22:00,72.5,62.6,30.23,WSW,253,1.0,3.0,71,0.00,,,0.12,meteohub,2013-08-17 06:22:00,
2013-08-16 23:27:00,72.1,62.6,30.23,WSW,253,0.0,2.0,72,0.00,,,0.12,meteohub,2013-08-17 06:27:00,
2013-08-16 23:32:00,71.8,62.2,30.23,SW,217,1.0,1.0,72,0.00,,,0.12,meteohub,2013-08-17 06:32:00,
2013-08-16 23:37:00,72.0,62.1,30.23,SSE,164,1.0,3.0,71,0.00,,,0.12,meteohub,2013-08-17 06:37:00,
2013-08-16 23:42:00,72.7,61.9,30.23,SW,214,3.0,7.0,69,0.00,,,0.12,meteohub,2013-08-17 06:42:00,
2013-08-16 23:47:00,73.0,61.9,30.23,SW,236,0.0,7.0,68,0.00,,,0.12,meteohub,2013-08-17 06:47:00,
2013-08-16 23:52:00,73.0,61.9,30.23,West,265,0.0,7.0,68,0.00,,,0.12,meteohub,2013-08-17 06:52:00,
2013-08-16 23:57:00,73.0,61.9,30.23,WNW,283,0.0,6.0,68,0.00,,,0.12,meteohub,2013-08-17 06:57:00,